When you browse on this site, cookies collect data to enhance your experience and personalize the content and advertising you see.
Visit our Privacy Policy to learn more. By continuing to use the site, you agree to this use of cookies and data.
  • In Hungary
  • List of Countries
  • For 7 days
  • Water Temperature
  • Satellite Maps
  • Weather Map
  • News
  • Weather Widgets
  • user-avatar
    Login

    Hourly Weather Gyula

    Today, 24 June, Monday

    Time Temperature Precipitation Wind Pressure Humidity
    00:00 +20°C° 0.3 mm 3 mps 753 mmHg 92%
    01:00 +21°C° 0 mm 1 mps 754 mmHg 94%
    02:00 +21°C° 0.4 mm 1 mps 753 mmHg 95%
    03:00 +19°C° 0.4 mm 2 mps 753 mmHg 95%
    04:00 +19°C° 0.4 mm 2 mps 753 mmHg 96%
    05:00 +20°C° 0.2 mm 2 mps 754 mmHg 94%
    06:00 +21°C° 0.2 mm 2 mps 754 mmHg 92%
    07:00 +23°C° 0 mm 2 mps 754 mmHg 91%
    08:00 +23°C° 0 mm 2 mps 755 mmHg 88%
    09:00 +24°C° 0 mm 1 mps 755 mmHg 86%
    10:00 +24°C° 0 mm 1 mps 755 mmHg 84%
    11:00 +25°C° 0 mm 1 mps 755 mmHg 80%
    12:00 +26°C° 0 mm 1 mps 755 mmHg 77%
    13:00 +27°C° 0 mm 1 mps 755 mmHg 73%
    14:00 +28°C° 1.1 mm 1 mps 755 mmHg 73%
    15:00 +28°C° 1.1 mm 1 mps 755 mmHg 72%
    16:00 +29°C° 1.1 mm 1 mps 755 mmHg 72%
    17:00 +27°C° 1.4 mm 2 mps 755 mmHg 76%
    18:00 +26°C° 1.4 mm 2 mps 756 mmHg 81%
    19:00 +25°C° 1.4 mm 2 mps 756 mmHg 86%
    20:00 +24°C° 0 mm 3 mps 756 mmHg 88%
    21:00 +24°C° 0 mm 3 mps 756 mmHg 91%
    22:00 +22°C° 0 mm 3 mps 756 mmHg 93%
    23:00 +22°C° 0 mm 3 mps 757 mmHg 93%

    Tomorrow, 25 June, Tuesday

    Time Temperature Precipitation Wind Pressure Humidity
    00:00 +21°C° 0 mm 2 mps 757 mmHg 93%
    01:00 +21°C° 0 mm 2 mps 758 mmHg 93%
    02:00 +21°C° 0 mm 2 mps 757 mmHg 93%
    03:00 +20°C° 0 mm 2 mps 757 mmHg 92%
    04:00 +20°C° 0 mm 2 mps 757 mmHg 91%
    05:00 +23°C° 0 mm 2 mps 757 mmHg 86%
    06:00 +24°C° 0 mm 1 mps 758 mmHg 82%
    07:00 +26°C° 0 mm 1 mps 758 mmHg 77%
    08:00 +27°C° 0 mm 1 mps 758 mmHg 72%
    09:00 +28°C° 0 mm 1 mps 759 mmHg 68%
    10:00 +29°C° 0 mm 2 mps 759 mmHg 63%
    11:00 +30°C° 0 mm 2 mps 759 mmHg 61%
    12:00 +31°C° 0 mm 2 mps 759 mmHg 59%
    13:00 +32°C° 0 mm 2 mps 759 mmHg 57%
    14:00 +33°C° 0 mm 3 mps 758 mmHg 59%
    15:00 +33°C° 0 mm 3 mps 758 mmHg 60%
    16:00 +33°C° 0 mm 3 mps 758 mmHg 61%
    17:00 +30°C° 0 mm 3 mps 758 mmHg 66%
    18:00 +29°C° 0 mm 3 mps 758 mmHg 72%
    19:00 +27°C° 0 mm 2 mps 758 mmHg 77%
    20:00 +26°C° 0 mm 2 mps 759 mmHg 79%
    21:00 +25°C° 0 mm 2 mps 759 mmHg 81%
    22:00 +24°C° 0 mm 2 mps 759 mmHg 83%
    23:00 +24°C° 0 mm 2 mps 759 mmHg 83%

    Day after tomorrow, 26 June, Wednesday

    Time Temperature Precipitation Wind Pressure Humidity
    00:00 +24°C° 0 mm 2 mps 759 mmHg 83%
    01:00 +23°C° 0 mm 2 mps 759 mmHg 82%
    02:00 +23°C° 0 mm 1 mps 759 mmHg 83%
    03:00 +23°C° 0 mm 1 mps 759 mmHg 84%
    04:00 +22°C° 0 mm 1 mps 759 mmHg 85%
    05:00 +24°C° 0 mm 1 mps 759 mmHg 81%
    06:00 +25°C° 0 mm 1 mps 759 mmHg 77%
    07:00 +26°C° 0 mm 1 mps 760 mmHg 72%
    08:00 +28°C° 0 mm 1 mps 760 mmHg 69%
    09:00 +29°C° 0 mm 1 mps 759 mmHg 65%
    10:00 +31°C° 0 mm 1 mps 759 mmHg 61%
    11:00 +31°C° 0 mm 1 mps 759 mmHg 57%
    12:00 +32°C° 0 mm 2 mps 759 mmHg 54%
    13:00 +34°C° 0 mm 3 mps 759 mmHg 51%
    14:00 +34°C° 0 mm 3 mps 759 mmHg 52%
    15:00 +34°C° 0 mm 3 mps 758 mmHg 54%
    16:00 +33°C° 0 mm 3 mps 758 mmHg 55%
    17:00 +31°C° 0 mm 3 mps 757 mmHg 59%
    18:00 +29°C° 0 mm 2 mps 757 mmHg 63%
    19:00 +27°C° 0 mm 2 mps 757 mmHg 66%
    20:00 +26°C° 0 mm 1 mps 757 mmHg 67%
    21:00 +25°C° 0 mm 1 mps 757 mmHg 67%
    22:00 +24°C° 0 mm 1 mps 757 mmHg 68%
    23:00 +23°C° 0 mm 1 mps 757 mmHg 69%

    27 June, Thursday

    Time Temperature Precipitation Wind Pressure Humidity
    00:00 +23°C° 0 mm 1 mps 757 mmHg 71%
    01:00 +23°C° 0 mm 1 mps 757 mmHg 72%
    02:00 +22°C° 0 mm 1 mps 757 mmHg 74%
    03:00 +22°C° 0 mm 1 mps 756 mmHg 77%
    04:00 +22°C° 0 mm 1 mps 756 mmHg 79%
    05:00 +23°C° 0 mm 1 mps 756 mmHg 78%
    06:00 +25°C° 0 mm 2 mps 756 mmHg 76%
    07:00 +26°C° 0 mm 2 mps 756 mmHg 75%
    08:00 +28°C° 0 mm 3 mps 756 mmHg 71%
    09:00 +29°C° 0 mm 3 mps 755 mmHg 67%
    10:00 +31°C° 0 mm 3 mps 755 mmHg 62%
    11:00 +31°C° 0 mm 3 mps 755 mmHg 60%
    12:00 +33°C° 0 mm 4 mps 754 mmHg 59%
    13:00 +34°C° 0 mm 4 mps 754 mmHg 57%
    14:00 +33°C° 0.4 mm 4 mps 753 mmHg 60%
    15:00 +33°C° 0.4 mm 4 mps 753 mmHg 63%
    16:00 +33°C° 0.4 mm 4 mps 752 mmHg 67%
    17:00 +30°C° 1.3 mm 3 mps 752 mmHg 71%
    18:00 +29°C° 1.3 mm 3 mps 752 mmHg 76%
    19:00 +27°C° 1.3 mm 3 mps 752 mmHg 81%
    20:00 +26°C° 0 mm 4 mps 752 mmHg 80%
    21:00 +23°C° 0 mm 5 mps 752 mmHg 79%
    22:00 +22°C° 0 mm 6 mps 752 mmHg 79%
    23:00 +21°C° 0 mm 6 mps 752 mmHg 79%

    28 June, Friday

    Time Temperature Precipitation Wind Pressure Humidity
    00:00 +20°C° 0 mm 5 mps 752 mmHg 80%
    01:00 +20°C° 0 mm 5 mps 753 mmHg 81%
    02:00 +19°C° 0 mm 5 mps 753 mmHg 81%
    03:00 +19°C° 0 mm 5 mps 753 mmHg 81%
    04:00 +18°C° 0 mm 4 mps 753 mmHg 82%
    05:00 +19°C° 0 mm 5 mps 753 mmHg 78%
    06:00 +20°C° 0 mm 5 mps 753 mmHg 74%
    07:00 +21°C° 0 mm 6 mps 754 mmHg 70%
    08:00 +22°C° 0 mm 6 mps 754 mmHg 64%
    09:00 +23°C° 0 mm 5 mps 754 mmHg 59%
    10:00 +25°C° 0 mm 5 mps 754 mmHg 53%
    11:00 +26°C° 0 mm 5 mps 754 mmHg 52%
    12:00 +26°C° 0 mm 5 mps 753 mmHg 51%
    13:00 +27°C° 0 mm 4 mps 753 mmHg 49%
    14:00 +27°C° 0 mm 4 mps 753 mmHg 51%
    15:00 +27°C° 0 mm 3 mps 753 mmHg 53%
    16:00 +27°C° 0 mm 3 mps 753 mmHg 54%
    17:00 +26°C° 0 mm 2 mps 753 mmHg 60%
    18:00 +25°C° 0 mm 1 mps 753 mmHg 65%
    19:00 +23°C° 0 mm 1 mps 753 mmHg 70%
    20:00 +23°C° 0 mm 1 mps 753 mmHg 71%
    21:00 +21°C° 0 mm 2 mps 753 mmHg 72%
    22:00 +20°C° 0 mm 2 mps 753 mmHg 73%
    23:00 +20°C° 0 mm 2 mps 753 mmHg 75%

    29 June, Saturday

    Time Temperature Precipitation Wind Pressure Humidity
    00:00 +19°C° 0 mm 2 mps 753 mmHg 78%
    01:00 +19°C° 0 mm 3 mps 753 mmHg 80%
    02:00 +19°C° 0 mm 3 mps 753 mmHg 76%
    03:00 +18°C° 0 mm 4 mps 753 mmHg 73%
    04:00 +17°C° 0 mm 5 mps 753 mmHg 69%
    05:00 +17°C° 0 mm 6 mps 753 mmHg 69%
    06:00 +17°C° 0 mm 7 mps 754 mmHg 70%
    07:00 +17°C° 0 mm 7 mps 754 mmHg 70%
    08:00 +18°C° 0 mm 7 mps 754 mmHg 64%
    09:00 +20°C° 0 mm 7 mps 755 mmHg 59%
    10:00 +21°C° 0 mm 7 mps 755 mmHg 53%
    11:00 +21°C° 0 mm 7 mps 755 mmHg 53%
    12:00 +22°C° 0 mm 8 mps 755 mmHg 53%
    13:00 +22°C° 0 mm 8 mps 755 mmHg 53%
    14:00 +22°C° 0 mm 7 mps 755 mmHg 54%
    15:00 +22°C° 0 mm 6 mps 755 mmHg 54%
    16:00 +22°C° 0 mm 6 mps 754 mmHg 54%
    17:00 +21°C° 0 mm 5 mps 755 mmHg 59%
    18:00 +20°C° 0 mm 4 mps 755 mmHg 64%
    19:00 +19°C° 0 mm 3 mps 755 mmHg 68%
    20:00 +19°C° 0 mm 2 mps 755 mmHg 65%
    21:00 +19°C° 0 mm 2 mps 756 mmHg 61%
    22:00 +20°C° 0 mm 1 mps 756 mmHg 58%
    23:00 +19°C° 0 mm 1 mps 756 mmHg 58%
    Show more